| time (UTC) | temp F | wind direction | speed MPH | gust MPH | rain 1hr in | rain 24hr in | rain mn in | humidity % | barometer mb |
| 20260508204502 | 62 | 6 | 2.0 | 7.0 | 0.00 | 0.00 | 0.00 | 67 | 1014.4 |
| 20260508204003 | 62 | 355 | 1.0 | 3.0 | 0.00 | 0.00 | 0.00 | 69 | 1014.4 |
| 20260508203002 | 63 | 15 | 2.0 | 8.0 | 0.00 | 0.00 | 0.00 | 68 | 1014.6 |
| 20260508202503 | 63 | 18 | 2.0 | 8.0 | 0.00 | 0.00 | 0.00 | 67 | 1014.7 |
| 20260508202002 | 63 | 8 | 2.0 | 8.0 | 0.00 | 0.00 | 0.00 | 66 | 1014.6 |
| 20260508201502 | 63 | 15 | 4.0 | 8.0 | 0.00 | 0.00 | 0.00 | 65 | 1014.6 |
| 20260508200503 | 63 | 357 | 2.0 | 8.0 | 0.00 | 0.00 | 0.00 | 67 | 1014.6 |
| 20260508200002 | 64 | 10 | 2.0 | 6.0 | 0.00 | 0.00 | 0.00 | 63 | 1014.7 |
| 20260508195502 | 64 | 45 | 3.0 | 8.0 | 0.00 | 0.00 | 0.00 | 65 | 1014.8 |
| 20260508194502 | 64 | 9 | 1.0 | 7.0 | 0.00 | 0.00 | 0.00 | 67 | 1015.1 |
| 20260508194002 | 64 | 2 | 1.0 | 7.0 | 0.00 | 0.00 | 0.00 | 65 | 1015.1 |
| 20260508193502 | 64 | 349 | 1.0 | 4.0 | 0.00 | 0.00 | 0.00 | 66 | 1015.2 |
| 20260508193002 | 64 | 340 | 2.0 | 7.0 | 0.00 | 0.00 | 0.00 | 65 | 1015.2 |
| 20260508192502 | 63 | 5 | 4.0 | 8.0 | 0.00 | 0.00 | 0.00 | 63 | 1015.4 |
| 20260508192003 | 64 | 25 | 3.0 | 8.0 | 0.00 | 0.00 | 0.00 | 66 | 1015.5 |
| 20260508191502 | 63 | 12 | 1.0 | 3.0 | 0.00 | 0.00 | 0.00 | 68 | 1015.5 |
| 20260508191003 | 63 | 6 | 1.0 | 3.0 | 0.00 | 0.00 | 0.00 | 67 | 1015.4 |
| 20260508190502 | 63 | 17 | 1.0 | 7.0 | 0.00 | 0.00 | 0.00 | 66 | 1015.5 |
| 20260508190002 | 63 | 11 | 1.0 | 7.0 | 0.00 | 0.00 | 0.00 | 66 | 1015.5 |
| 20260508185502 | 63 | 13 | 2.0 | 11.0 | 0.00 | 0.00 | 0.00 | 67 | 1015.7 |
| 20260508185002 | 62 | 18 | 3.0 | 11.0 | 0.00 | 0.00 | 0.00 | 65 | 1016.0 |
| 20260508184502 | 62 | 14 | 3.0 | 10.0 | 0.00 | 0.00 | 0.00 | 66 | 1016.0 |
| 20260508184002 | 62 | 18 | 2.0 | 10.0 | 0.00 | 0.00 | 0.00 | 64 | 1016.1 |
| 20260508183502 | 62 | 32 | 3.0 | 8.0 | 0.00 | 0.00 | 0.00 | 65 | 1016.1 |
| 20260508183002 | 62 | 27 | 2.0 | 8.0 | 0.00 | 0.00 | 0.00 | 67 | 1016.1 |
| 20260508182502 | 62 | 6 | 1.0 | 8.0 | 0.00 | 0.00 | 0.00 | 67 | 1016.1 |
| 20260508181502 | 62 | 14 | 2.0 | 6.0 | 0.00 | 0.00 | 0.00 | 64 | 1016.4 |
| 20260508181002 | 62 | 14 | 2.0 | 6.0 | 0.00 | 0.00 | 0.00 | 68 | 1016.2 |
| 20260508180502 | 62 | 337 | 1.0 | 6.0 | 0.00 | 0.00 | 0.00 | 65 | 1016.4 |
| 20260508180002 | 62 | 358 | 2.0 | 6.0 | 0.00 | 0.00 | 0.00 | 64 | 1016.4 |
| 20260508175002 | 62 | 19 | 2.0 | 7.0 | 0.00 | 0.00 | 0.00 | 65 | 1016.4 |
| 20260508174502 | 63 | 26 | 3.0 | 7.0 | 0.00 | 0.00 | 0.00 | 67 | 1016.6 |
| 20260508173503 | 62 | 353 | 2.0 | 6.0 | 0.00 | 0.00 | 0.00 | 67 | 1016.7 |
| 20260508173003 | 62 | 339 | 2.0 | 6.0 | 0.00 | 0.00 | 0.00 | 65 | 1016.7 |
| 20260508172503 | 62 | 2 | 2.0 | 7.0 | 0.00 | 0.00 | 0.00 | 63 | 1016.7 |
| 20260508172003 | 62 | 17 | 3.0 | 7.0 | 0.00 | 0.00 | 0.00 | 67 | 1016.7 |
| 20260508171003 | 61 | 16 | 2.0 | 7.0 | 0.00 | 0.00 | 0.00 | 65 | 1017.0 |
| 20260508170502 | 61 | 3 | 1.0 | 4.0 | 0.00 | 0.00 | 0.00 | 68 | 1017.2 |
| 20260508165002 | 61 | 3 | 1.0 | 7.0 | 0.00 | 0.00 | 0.00 | 68 | 1017.3 |
| 20260508164502 | 61 | 20 | 2.0 | 7.0 | 0.00 | 0.00 | 0.00 | 68 | 1017.4 |
| 20260508164002 | 60 | 35 | 2.0 | 7.0 | 0.00 | 0.00 | 0.00 | 71 | 1017.5 |
| 20260508163003 | 59 | 357 | 1.0 | 6.0 | 0.00 | 0.00 | 0.00 | 71 | 1017.7 |
| 20260508162503 | 59 | 352 | 1.0 | 4.0 | 0.00 | 0.00 | 0.00 | 72 | 1017.7 |
| 20260508162002 | 59 | 3 | 1.0 | 6.0 | 0.00 | 0.00 | 0.00 | 71 | 1017.6 |
| 20260508161503 | 59 | 352 | 1.0 | 6.0 | 0.00 | 0.00 | 0.00 | 71 | 1017.7 |
| 20260508161002 | 59 | 354 | 1.0 | 3.0 | 0.00 | 0.00 | 0.00 | 69 | 1017.7 |
| 20260508160503 | 60 | 10 | 1.0 | 7.0 | 0.00 | 0.00 | 0.00 | 71 | 1017.7 |
| 20260508160003 | 60 | 15 | 2.0 | 7.0 | 0.00 | 0.00 | 0.00 | 69 | 1017.8 |
| 20260508155003 | 60 | 10 | 1.0 | 6.0 | 0.00 | 0.00 | 0.00 | 70 | 1017.9 |
| 20260508154003 | 59 | 9 | 1.0 | 6.0 | 0.00 | 0.00 | 0.00 | 73 | 1018.0 |
| 20260508153003 | 59 | 330 | 1.0 | 3.0 | 0.00 | 0.00 | 0.00 | 70 | 1018.0 |
| 20260508152503 | 59 | 358 | 1.0 | 3.0 | 0.00 | 0.00 | 0.00 | 71 | 1018.1 |
| 20260508151502 | 58 | 347 | 1.0 | 3.0 | 0.00 | 0.00 | 0.00 | 71 | 1018.1 |
| 20260508151002 | 58 | 15 | 1.0 | 6.0 | 0.00 | 0.00 | 0.00 | 70 | 1018.0 |
| 20260508150502 | 58 | 22 | 1.0 | 6.0 | 0.00 | 0.00 | 0.00 | 68 | 1018.0 |
| 20260508145002 | 56 | 83 | 1.0 | 3.0 | 0.00 | 0.00 | 0.00 | 73 | 1018.0 |
| 20260508144503 | 56 | 198 | 0.0 | 3.0 | 0.00 | 0.00 | 0.00 | 72 | 1017.9 |
| 20260508144003 | 56 | 198 | 1.0 | 3.0 | 0.00 | 0.00 | 0.00 | 70 | 1017.9 |
| 20260508143502 | 55 | 199 | 1.0 | 3.0 | 0.00 | 0.00 | 0.00 | 73 | 1018.0 |
| 20260508143002 | 55 | 201 | 1.0 | 3.0 | 0.00 | 0.00 | 0.00 | 72 | 1018.1 |
| 20260508142502 | 55 | 203 | 0.0 | 3.0 | 0.00 | 0.00 | 0.00 | 72 | 1018.1 |
| 20260508141503 | 54 | 203 | 0.0 | 3.0 | 0.00 | 0.00 | 0.00 | 75 | 1018.2 |
| 20260508141002 | 54 | 203 | 0.0 | 1.0 | 0.00 | 0.00 | 0.00 | 75 | 1018.3 |
| 20260508140502 | 54 | 203 | 0.0 | 1.0 | 0.00 | 0.00 | 0.00 | 77 | 1018.3 |
| 20260508140003 | 53 | 203 | 0.0 | 1.0 | 0.00 | 0.00 | 0.00 | 76 | 1018.3 |
| 20260508135502 | 53 | 203 | 0.0 | 1.0 | 0.00 | 0.00 | 0.00 | 76 | 1018.3 |
| 20260508134503 | 52 | 203 | 0.0 | 1.0 | 0.00 | 0.01 | 0.00 | 78 | 1018.4 |
| 20260508132503 | 51 | 0 | 0.0 | 0.0 | 0.00 | 0.01 | 0.00 | 84 | 1018.4 |
| 20260508132003 | 51 | 203 | 0.0 | 1.0 | 0.00 | 0.01 | 0.00 | 83 | 1018.3 |
| 20260508131503 | 50 | 203 | 0.0 | 1.0 | 0.00 | 0.01 | 0.00 | 82 | 1018.2 |
| 20260508131002 | 50 | 203 | 0.0 | 1.0 | 0.00 | 0.01 | 0.00 | 84 | 1018.2 |
| 20260508130003 | 50 | 0 | 0.0 | 0.0 | 0.00 | 0.02 | 0.00 | 86 | 1018.3 |
| 20260508125002 | 49 | 0 | 0.0 | 0.0 | 0.00 | 0.04 | 0.00 | 86 | 1018.1 |
| 20260508124503 | 49 | 203 | 0.0 | 3.0 | 0.00 | 0.04 | 0.00 | 87 | 1018.1 |
| 20260508123503 | 48 | 203 | 0.0 | 1.0 | 0.00 | 0.04 | 0.00 | 88 | 1018.0 |
| 20260508123002 | 48 | 203 | 0.0 | 1.0 | 0.00 | 0.05 | 0.00 | 90 | 1017.9 |
| 20260508122503 | 47 | 203 | 0.0 | 1.0 | 0.00 | 0.05 | 0.00 | 91 | 1017.7 |
| 20260508122003 | 47 | 203 | 0.0 | 1.0 | 0.00 | 0.05 | 0.00 | 90 | 1017.6 |
| 20260508121503 | 46 | 203 | 0.0 | 1.0 | 0.00 | 0.05 | 0.00 | 93 | 1017.6 |
| 20260508120503 | 46 | 0 | 0.0 | 0.0 | 0.00 | 0.06 | 0.00 | 96 | 1017.5 |
| 20260508115503 | 46 | 203 | 0.0 | 1.0 | 0.00 | 0.06 | 0.00 | 96 | 1017.5 |
| 20260508114003 | 46 | 0 | 0.0 | 0.0 | 0.00 | 0.10 | 0.00 | 97 | 1017.3 |
| 20260508113503 | 46 | 0 | 0.0 | 0.0 | 0.00 | 0.10 | 0.00 | 97 | 1017.2 |
| 20260508113002 | 45 | 0 | 0.0 | 0.0 | 0.00 | 0.11 | 0.00 | 96 | 1017.1 |
| 20260508112503 | 45 | 0 | 0.0 | 0.0 | 0.00 | 0.11 | 0.00 | 97 | 1017.0 |
| 20260508112003 | 45 | 0 | 0.0 | 0.0 | 0.00 | 0.11 | 0.00 | 97 | 1016.9 |
| 20260508111503 | 45 | 0 | 0.0 | 0.0 | 0.00 | 0.11 | 0.00 | 97 | 1016.8 |
| 20260508111002 | 45 | 0 | 0.0 | 0.0 | 0.00 | 0.11 | 0.00 | 97 | 1016.7 |
| 20260508110503 | 45 | 0 | 0.0 | 0.0 | 0.00 | 0.12 | 0.00 | 97 | 1016.6 |
| 20260508110003 | 45 | 203 | 0.0 | 1.0 | 0.00 | 0.12 | 0.00 | 97 | 1016.7 |
| 20260508105503 | 44 | 203 | 0.0 | 1.0 | 0.00 | 0.13 | 0.00 | 97 | 1016.7 |
| 20260508104503 | 44 | 0 | 0.0 | 0.0 | 0.00 | 0.17 | 0.00 | 97 | 1016.6 |
| 20260508104003 | 44 | 0 | 0.0 | 0.0 | 0.00 | 0.18 | 0.00 | 97 | 1016.4 |
| 20260508103503 | 44 | 0 | 0.0 | 0.0 | 0.00 | 0.18 | 0.00 | 96 | 1016.3 |
| 20260508103003 | 44 | 0 | 0.0 | 0.0 | 0.00 | 0.18 | 0.00 | 96 | 1016.2 |
| 20260508102503 | 44 | 0 | 0.0 | 0.0 | 0.00 | 0.18 | 0.00 | 96 | 1016.1 |
| 20260508102003 | 44 | 0 | 0.0 | 0.0 | 0.00 | 0.18 | 0.00 | 96 | 1016.2 |
| 20260508101003 | 45 | 0 | 0.0 | 0.0 | 0.00 | 0.18 | 0.00 | 96 | 1016.0 |
| 20260508100503 | 45 | 0 | 0.0 | 0.0 | 0.00 | 0.19 | 0.00 | 95 | 1015.9 |
| 20260508100004 | 45 | 0 | 0.0 | 0.0 | 0.00 | 0.19 | 0.00 | 95 | 1015.7 |
| 20260508095503 | 45 | 0 | 0.0 | 0.0 | 0.00 | 0.19 | 0.00 | 95 | 1015.8 |
| 20260508094003 | 46 | 0 | 0.0 | 0.0 | 0.00 | 0.21 | 0.00 | 96 | 1015.7 |
| 20260508093503 | 46 | 0 | 0.0 | 0.0 | 0.00 | 0.21 | 0.00 | 96 | 1015.7 |
| 20260508093003 | 46 | 0 | 0.0 | 0.0 | 0.00 | 0.21 | 0.00 | 95 | 1015.6 |
| 20260508092503 | 46 | 0 | 0.0 | 0.0 | 0.00 | 0.21 | 0.00 | 95 | 1015.6 |
| 20260508092003 | 46 | 203 | 0.0 | 1.0 | 0.00 | 0.21 | 0.00 | 95 | 1015.7 |
| 20260508091502 | 46 | 203 | 0.0 | 1.0 | 0.00 | 0.21 | 0.00 | 95 | 1015.6 |
| 20260508091003 | 46 | 203 | 0.0 | 1.0 | 0.00 | 0.21 | 0.00 | 94 | 1015.6 |
| 20260508090003 | 47 | 0 | 0.0 | 0.0 | 0.00 | 0.21 | 0.00 | 94 | 1015.6 |
| 20260508085503 | 47 | 0 | 0.0 | 0.0 | 0.00 | 0.21 | 0.00 | 94 | 1015.7 |
| 20260508085003 | 47 | 0 | 0.0 | 0.0 | 0.00 | 0.21 | 0.00 | 94 | 1015.6 |
| 20260508084504 | 48 | 0 | 0.0 | 0.0 | 0.00 | 0.21 | 0.00 | 94 | 1015.6 |
| 20260508084003 | 48 | 0 | 0.0 | 0.0 | 0.00 | 0.21 | 0.00 | 94 | 1015.6 |
| 20260508083503 | 48 | 0 | 0.0 | 0.0 | 0.00 | 0.21 | 0.00 | 93 | 1015.6 |
| 20260508083003 | 48 | 0 | 0.0 | 0.0 | 0.00 | 0.21 | 0.00 | 93 | 1015.6 |
| 20260508082503 | 48 | 0 | 0.0 | 0.0 | 0.00 | 0.21 | 0.00 | 92 | 1015.5 |
| 20260508082003 | 49 | 188 | 0.0 | 1.0 | 0.00 | 0.21 | 0.00 | 92 | 1015.4 |
| 20260508081504 | 49 | 183 | 0.0 | 3.0 | 0.00 | 0.21 | 0.00 | 91 | 1015.5 |
| 20260508081004 | 49 | 178 | 0.0 | 3.0 | 0.00 | 0.21 | 0.00 | 91 | 1015.3 |
| 20260508080503 | 49 | 178 | 1.0 | 3.0 | 0.00 | 0.21 | 0.00 | 91 | 1015.3 |
| 20260508075503 | 49 | 178 | 1.0 | 3.0 | 0.00 | 0.21 | 0.00 | 91 | 1015.1 |
| 20260508075004 | 48 | 178 | 1.0 | 4.0 | 0.00 | 0.21 | 0.00 | 92 | 1015.1 |
| 20260508074503 | 48 | 183 | 1.0 | 6.0 | 0.00 | 0.22 | 0.00 | 92 | 1015.2 |
| 20260508073503 | 48 | 187 | 0.0 | 3.0 | 0.00 | 0.22 | 0.00 | 94 | 1015.2 |
| 20260508073003 | 48 | 192 | 1.0 | 3.0 | 0.00 | 0.22 | 0.00 | 95 | 1015.1 |
| 20260508072503 | 48 | 193 | 1.0 | 3.0 | 0.00 | 0.22 | 0.00 | 95 | 1015.0 |
| 20260508071503 | 48 | 193 | 0.0 | 1.0 | 0.00 | 0.22 | 0.00 | 95 | 1015.0 |
| 20260508071004 | 48 | 182 | 0.0 | 3.0 | 0.00 | 0.22 | 0.00 | 95 | 1015.1 |
| 20260508070004 | 48 | 171 | 0.0 | 3.0 | 0.00 | 0.22 | 0.00 | 94 | 1014.9 |
| 20260508065504 | 49 | 171 | 0.0 | 3.0 | 0.00 | 0.22 | 0.00 | 94 | 1015.0 |
| 20260508065003 | 49 | 174 | 1.0 | 3.0 | 0.00 | 0.22 | 0.00 | 95 | 1015.0 |
| 20260508064503 | 49 | 183 | 1.0 | 4.0 | 0.00 | 0.22 | 0.00 | 95 | 1014.7 |
| 20260508064003 | 49 | 184 | 1.0 | 6.0 | 0.00 | 0.22 | 0.00 | 95 | 1014.6 |
| 20260508063503 | 48 | 188 | 1.0 | 6.0 | 0.00 | 0.22 | 0.00 | 96 | 1014.6 |
| 20260508063003 | 48 | 201 | 1.0 | 6.0 | 0.00 | 0.22 | 0.00 | 96 | 1014.6 |
| 20260508062503 | 48 | 201 | 1.0 | 6.0 | 0.00 | 0.22 | 0.00 | 97 | 1014.7 |
| 20260508062003 | 47 | 201 | 1.0 | 6.0 | 0.00 | 0.23 | 0.00 | 100 | 1014.7 |
| 20260508061503 | 47 | 198 | 1.0 | 3.0 | 0.00 | 0.23 | 0.00 | 100 | 1014.7 |
| 20260508061003 | 46 | 198 | 0.0 | 3.0 | 0.00 | 0.23 | 0.00 | 100 | 1014.6 |
| 20260508060504 | 46 | 185 | 0.0 | 1.0 | 0.00 | 0.23 | 0.00 | 100 | 1014.7 |
| 20260508060004 | 46 | 185 | 0.0 | 1.0 | 0.00 | 0.23 | 0.00 | 100 | 1014.6 |
| 20260508055504 | 46 | 0 | 0.0 | 0.0 | 0.00 | 0.23 | 0.00 | 100 | 1015.0 |
| 20260508055004 | 46 | 0 | 0.0 | 0.0 | 0.00 | 0.24 | 0.00 | 100 | 1014.9 |
| 20260508054503 | 46 | 0 | 0.0 | 0.0 | 0.00 | 0.24 | 0.00 | 97 | 1015.1 |
| 20260508054003 | 46 | 0 | 0.0 | 0.0 | 0.00 | 0.26 | 0.00 | 97 | 1015.1 |
| 20260508053504 | 46 | 0 | 0.0 | 0.0 | 0.00 | 0.27 | 0.00 | 97 | 1015.1 |
| 20260508052004 | 46 | 0 | 0.0 | 0.0 | 0.00 | 0.28 | 0.00 | 97 | 1015.0 |
| 20260508051003 | 46 | 0 | 0.0 | 0.0 | 0.00 | 0.28 | 0.00 | 97 | 1014.9 |
| 20260508050504 | 46 | 0 | 0.0 | 0.0 | 0.00 | 0.28 | 0.00 | 97 | 1014.8 |
| 20260508050003 | 46 | 0 | 0.0 | 0.0 | 0.00 | 0.29 | 0.00 | 97 | 1014.8 |
| 20260508045503 | 46 | 184 | 0.0 | 1.0 | 0.00 | 0.29 | 0.00 | 97 | 1014.9 |
| 20260508045003 | 47 | 185 | 0.0 | 1.0 | 0.00 | 0.30 | 0.00 | 96 | 1014.8 |
| 20260508044504 | 47 | 185 | 0.0 | 3.0 | 0.00 | 0.30 | 0.00 | 96 | 1014.9 |
| 20260508044003 | 47 | 185 | 0.0 | 3.0 | 0.00 | 0.30 | 0.00 | 96 | 1014.8 |
| 20260508043503 | 47 | 185 | 0.0 | 3.0 | 0.00 | 0.31 | 0.00 | 96 | 1014.9 |
| 20260508043004 | 47 | 185 | 0.0 | 3.0 | 0.00 | 0.32 | 0.00 | 95 | 1014.9 |
| 20260508042503 | 47 | 185 | 0.0 | 1.0 | 0.00 | 0.32 | 0.00 | 95 | 1014.8 |
| 20260508042003 | 48 | 185 | 0.0 | 3.0 | 0.00 | 0.34 | 0.00 | 95 | 1014.8 |
| 20260508041504 | 48 | 185 | 0.0 | 3.0 | 0.00 | 0.34 | 0.00 | 95 | 1014.7 |
| 20260508041003 | 48 | 184 | 0.0 | 1.0 | 0.00 | 0.34 | 0.00 | 94 | 1014.7 |
| 20260508040503 | 48 | 185 | 0.0 | 1.0 | 0.00 | 0.34 | 0.00 | 94 | 1014.7 |
| 20260508040004 | 48 | 185 | 0.0 | 1.0 | 0.00 | 0.34 | 0.00 | 93 | 1014.6 |
| 20260508035503 | 49 | 185 | 0.0 | 1.0 | 0.00 | 0.34 | 0.34 | 93 | 1014.7 |
| 20260508035003 | 49 | 185 | 0.0 | 3.0 | 0.00 | 0.34 | 0.34 | 93 | 1014.7 |
| 20260508034503 | 49 | 185 | 0.0 | 3.0 | 0.00 | 0.34 | 0.34 | 93 | 1014.7 |
| 20260508033503 | 50 | 185 | 0.0 | 3.0 | 0.00 | 0.34 | 0.34 | 92 | 1014.6 |
| 20260508033003 | 50 | 185 | 0.0 | 3.0 | 0.00 | 0.34 | 0.34 | 91 | 1014.7 |
| 20260508032503 | 50 | 185 | 0.0 | 1.0 | 0.00 | 0.34 | 0.34 | 91 | 1014.7 |
| 20260508032004 | 51 | 183 | 0.0 | 3.0 | 0.00 | 0.34 | 0.34 | 91 | 1014.7 |
| 20260508031504 | 50 | 183 | 1.0 | 3.0 | 0.00 | 0.34 | 0.34 | 91 | 1014.7 |
| 20260508031004 | 50 | 182 | 1.0 | 3.0 | 0.00 | 0.34 | 0.34 | 90 | 1014.6 |
| 20260508030503 | 50 | 186 | 1.0 | 6.0 | 0.00 | 0.34 | 0.34 | 91 | 1014.4 |
| 20260508030004 | 51 | 190 | 0.0 | 6.0 | 0.00 | 0.34 | 0.34 | 90 | 1014.4 |
| 20260508025503 | 51 | 189 | 0.0 | 3.0 | 0.00 | 0.34 | 0.34 | 90 | 1014.3 |
| 20260508025003 | 51 | 185 | 0.0 | 3.0 | 0.00 | 0.34 | 0.34 | 90 | 1014.3 |
| 20260508024503 | 51 | 182 | 0.0 | 3.0 | 0.00 | 0.34 | 0.34 | 90 | 1014.4 |
| 20260508024003 | 51 | 182 | 0.0 | 3.0 | 0.00 | 0.34 | 0.34 | 89 | 1014.2 |
| 20260508023504 | 51 | 182 | 0.0 | 1.0 | 0.00 | 0.34 | 0.34 | 88 | 1014.1 |
| 20260508023003 | 52 | 182 | 0.0 | 1.0 | 0.00 | 0.34 | 0.34 | 88 | 1014.2 |
| 20260508022503 | 52 | 182 | 0.0 | 3.0 | 0.00 | 0.34 | 0.34 | 88 | 1014.1 |
| 20260508022003 | 52 | 182 | 0.0 | 3.0 | 0.00 | 0.34 | 0.34 | 87 | 1014.0 |
| 20260508021503 | 52 | 182 | 1.0 | 3.0 | 0.00 | 0.35 | 0.34 | 86 | 1014.0 |
| 20260508021004 | 52 | 182 | 1.0 | 3.0 | 0.00 | 0.36 | 0.34 | 85 | 1013.9 |
| 20260508020503 | 52 | 182 | 1.0 | 3.0 | 0.00 | 0.36 | 0.34 | 85 | 1013.9 |
| 20260508020004 | 52 | 181 | 1.0 | 7.0 | 0.00 | 0.40 | 0.34 | 86 | 1013.9 |
| 20260508015004 | 52 | 185 | 1.0 | 6.0 | 0.00 | 0.41 | 0.34 | 87 | 1013.8 |
| 20260508014504 | 52 | 186 | 1.0 | 4.0 | 0.00 | 0.41 | 0.34 | 87 | 1013.6 |
| 20260508014004 | 52 | 176 | 2.0 | 4.0 | 0.00 | 0.41 | 0.34 | 87 | 1013.6 |
| 20260508013504 | 52 | 165 | 2.0 | 6.0 | 0.00 | 0.41 | 0.34 | 86 | 1013.4 |
| 20260508013004 | 52 | 163 | 2.0 | 6.0 | 0.00 | 0.41 | 0.34 | 86 | 1013.4 |
| 20260508012504 | 52 | 163 | 2.0 | 6.0 | 0.00 | 0.41 | 0.34 | 87 | 1013.5 |
| 20260508012004 | 52 | 162 | 1.0 | 6.0 | 0.00 | 0.42 | 0.34 | 87 | 1013.5 |
| 20260508011003 | 52 | 172 | 2.0 | 8.0 | 0.00 | 0.42 | 0.34 | 87 | 1013.2 |
| 20260508005504 | 53 | 176 | 2.0 | 6.0 | 0.00 | 0.42 | 0.34 | 86 | 1013.1 |
| 20260508005003 | 53 | 172 | 3.0 | 6.0 | 0.00 | 0.43 | 0.34 | 86 | 1013.2 |
| 20260508004504 | 53 | 173 | 2.0 | 7.0 | 0.00 | 0.43 | 0.34 | 86 | 1013.0 |
| 20260508003005 | 53 | 166 | 2.0 | 8.0 | 0.00 | 0.43 | 0.34 | 86 | 1012.8 |
| 20260508002504 | 53 | 164 | 2.0 | 8.0 | 0.00 | 0.43 | 0.34 | 86 | 1012.8 |
| 20260508002004 | 54 | 168 | 2.0 | 7.0 | 0.00 | 0.45 | 0.34 | 87 | 1012.8 |
| 20260508001504 | 54 | 176 | 2.0 | 7.0 | 0.00 | 0.49 | 0.34 | 86 | 1012.7 |
| 20260508001004 | 54 | 188 | 2.0 | 6.0 | 0.00 | 0.50 | 0.34 | 86 | 1012.6 |
| 20260508000504 | 54 | 182 | 2.0 | 6.0 | 0.00 | 0.50 | 0.34 | 87 | 1012.5 |
| 20260508000004 | 54 | 185 | 2.0 | 7.0 | 0.00 | 0.51 | 0.34 | 86 | 1012.6 |
| 20260507235504 | 54 | 199 | 3.0 | 7.0 | 0.00 | 0.52 | 0.34 | 86 | 1012.6 |
| 20260507235004 | 54 | 184 | 3.0 | 8.0 | 0.00 | 0.52 | 0.34 | 85 | 1012.6 |
| 20260507234504 | 54 | 170 | 3.0 | 8.0 | 0.00 | 0.53 | 0.34 | 85 | 1012.5 |
| 20260507234004 | 54 | 186 | 2.0 | 7.0 | 0.00 | 0.53 | 0.34 | 86 | 1012.6 |
| 20260507233504 | 55 | 178 | 3.0 | 8.0 | 0.00 | 0.53 | 0.34 | 85 | 1012.6 |
| 20260507233003 | 55 | 167 | 3.0 | 8.0 | 0.00 | 0.53 | 0.34 | 85 | 1012.6 |
| 20260507232003 | 55 | 181 | 3.0 | 8.0 | 0.00 | 0.55 | 0.34 | 85 | 1012.3 |
| 20260507231504 | 55 | 182 | 4.0 | 8.0 | 0.00 | 0.56 | 0.34 | 85 | 1012.3 |
| 20260507231004 | 55 | 177 | 5.0 | 15.0 | 0.00 | 0.57 | 0.34 | 84 | 1012.3 |
| 20260507230004 | 55 | 183 | 3.0 | 8.0 | 0.00 | 0.60 | 0.34 | 84 | 1012.4 |
| 20260507225504 | 55 | 178 | 3.0 | 8.0 | 0.00 | 0.61 | 0.34 | 84 | 1012.3 |
| 20260507225003 | 56 | 176 | 2.0 | 8.0 | 0.00 | 0.62 | 0.34 | 84 | 1012.3 |
| 20260507224504 | 56 | 186 | 2.0 | 7.0 | 0.00 | 0.64 | 0.34 | 85 | 1012.2 |
| 20260507224003 | 56 | 186 | 3.0 | 8.0 | 0.00 | 0.65 | 0.34 | 85 | 1012.2 |
| 20260507223504 | 56 | 182 | 5.0 | 10.0 | 0.00 | 0.65 | 0.34 | 84 | 1012.0 |
| 20260507222503 | 57 | 175 | 5.0 | 10.0 | 0.00 | 0.66 | 0.34 | 84 | 1011.8 |
| 20260507221503 | 58 | 181 | 3.0 | 10.0 | 0.00 | 0.67 | 0.34 | 82 | 1011.6 |
| 20260507220502 | 60 | 172 | 3.0 | 11.0 | 0.00 | 0.68 | 0.34 | 82 | 1011.2 |
| 20260507220002 | 60 | 173 | 4.0 | 11.0 | 0.00 | 0.69 | 0.34 | 81 | 1011.0 |
| 20260507214502 | 62 | 161 | 4.0 | 10.0 | 0.00 | 0.72 | 0.34 | 81 | 1010.7 |
| 20260507213502 | 62 | 138 | 2.0 | 11.0 | 0.00 | 0.74 | 0.34 | 82 | 1010.4 |
| 20260507213003 | 63 | 143 | 2.0 | 11.0 | 0.00 | 0.74 | 0.34 | 81 | 1010.3 |
| 20260507212502 | 63 | 149 | 2.0 | 8.0 | 0.00 | 0.75 | 0.34 | 82 | 1010.3 |
| 20260507212002 | 63 | 161 | 3.0 | 8.0 | 0.00 | 0.75 | 0.34 | 82 | 1010.3 |
| 20260507211502 | 63 | 179 | 4.0 | 8.0 | 0.00 | 0.75 | 0.34 | 82 | 1010.3 |
| 20260507211002 | 63 | 194 | 3.0 | 8.0 | 0.00 | 0.75 | 0.34 | 81 | 1010.2 |
| 20260507210502 | 63 | 187 | 2.0 | 7.0 | 0.00 | 0.75 | 0.34 | 82 | 1010.3 |
| 20260507210002 | 62 | 162 | 1.0 | 6.0 | 0.00 | 0.75 | 0.34 | 84 | 1010.1 |
| 20260507205502 | 62 | 171 | 2.0 | 8.0 | 0.00 | 0.75 | 0.34 | 83 | 1010.1 |